Location: Maddington
(51.2000°N, 1.9167°W)
Time: 11:43:03
(UTC+00:00)

NOSS 2-2 (E) - Pass Details

Date: 24 January 2021
Orbit: 465 x 1741 km, 63.3° (Epoch: 16 January)

Event Time Altitude Azimuth Distance (km) Brightness Sun altitude
Rises 18:55:24 0° 314° (NW) 2,931 7.6 -20.2°
Reaches altitude 10° 18:57:33 10° 323° (NW) 2,156 6.7 -20.5°
Maximum altitude 19:02:12 40° 34° (NNE) 1,229 4.7 -21.3°
Enters shadow 19:03:03 38° 55° (NE) 1,317 4.8 -21.4°
